EW7554 Weather Reports


time (UTC)temp
F
wind
direction
speed
knots
gust
knots
rain 1hr
in
rain 24hr
in
rain mn
in
humidity
%
barometer
mb
20260507203059 57 311 6.1 13.0 0.00 0.00 0.00 26 1012.3
20260507201607 56 205 6.1 11.3 0.00 0.00 0.00 25 1012.4
20260507200101 56 288 5.2 12.2 0.00 0.00 0.00 27 1012.5
20260507194556 55 340 5.2 9.6 0.00 0.00 0.00 27 1012.7
20260507193057 57 336 5.2 10.4 0.00 0.00 0.00 26 1012.7
20260507191553 56 355 5.2 11.3 0.00 0.00 0.00 27 1012.9
20260507190051 56 319 3.5 8.7 0.00 0.00 0.00 28 1013.0
20260507184550 54 315 1.7 10.4 0.00 0.00 0.00 27 1013.0
20260507183047 55 321 3.5 7.8 0.00 0.00 0.00 28 1013.1
20260507181545 54 289 3.5 9.6 0.00 0.00 0.00 27 1013.2
20260507180048 53 301 7.0 12.2 0.00 0.00 0.00 27 1013.3
20260507174547 53 209 3.5 9.6 0.00 0.00 0.00 29 1013.4
20260507173044 53 288 1.7 8.7 0.00 0.00 0.00 30 1013.5
20260507171545 51 304 2.6 11.3 0.00 0.00 0.00 29 1013.7
20260507170034 52 355 1.7 9.6 0.00 0.00 0.00 32 1013.8
20260507164532 51 340 4.3 12.2 0.00 0.00 0.00 29 1014.0
20260507163027 50 350 2.6 8.7 0.00 0.00 0.00 31 1014.2
20260507161524 51 348 4.3 8.7 0.00 0.00 0.00 31 1014.2
20260507160023 50 331 5.2 8.7 0.00 0.00 0.00 34 1014.3
20260507154520 51 306 0.9 4.3 0.00 0.00 0.00 37 1014.4
20260507153013 49 338 0.0 7.0 0.00 0.00 0.00 37 1014.4
20260507151510 48 330 2.6 7.8 0.00 0.00 0.00 38 1014.6
20260507150006 48 252 0.9 6.1 0.00 0.00 0.00 37 1014.4
20260507144501 48 355 1.7 3.5 0.00 0.00 0.00 41 1014.6
20260507143058 47 294 1.7 4.3 0.00 0.00 0.00 41 1014.6
20260507141615 46 337 0.9 4.3 0.00 0.00 0.00 44 1014.7
20260507140049 45 221 0.9 4.3 0.00 0.00 0.00 45 1014.8
20260507134549 44 275 1.7 4.3 0.00 0.00 0.00 52 1014.7
20260507133042 44 296 0.9 2.6 0.00 0.00 0.00 57 1014.8
20260507131541 42 306 0.9 3.5 0.00 0.00 0.00 59 1014.9
20260507130033 41 259 0.9 2.6 0.00 0.00 0.00 66 1014.9
20260507124530 38 258 0.0 0.9 0.00 0.00 0.00 75 1015.0
20260507123029 36 258 0.0 1.7 0.00 0.00 0.00 78 1015.0
20260507121525 35 258 0.0 1.7 0.00 0.00 0.00 79 1015.0
20260507120020 34 258 0.0 1.7 0.00 0.00 0.00 78 1015.0
20260507114516 34 258 0.0 1.7 0.00 0.00 0.00 77 1015.0
20260507113014 33 258 0.0 0.9 0.00 0.00 0.00 78 1015.0
20260507111509 33 258 0.0 1.7 0.00 0.00 0.00 78 1015.0
20260507110005 34 258 0.0 1.7 0.00 0.00 0.00 79 1015.0
20260507104508 33 258 0.0 0.9 0.00 0.00 0.00 78 1015.0
20260507103004 33 258 0.0 1.7 0.00 0.00 0.00 79 1015.0
20260507101501 34 258 0.0 0.0 0.00 0.00 0.00 77 1015.0
20260507100100 34 258 0.9 1.7 0.00 0.00 0.00 77 1015.0
20260507094559 34 258 0.9 1.7 0.00 0.00 0.00 77 1015.0
20260507093100 34 257 0.9 2.6 0.00 0.00 0.00 75 1015.2
20260507091558 35 257 0.0 1.7 0.00 0.00 0.00 73 1015.2
20260507090053 35 257 0.0 1.7 0.00 0.00 0.00 71 1015.2
20260507084551 36 257 0.0 1.7 0.00 0.00 0.00 70 1015.1
20260507083050 36 257 0.9 2.6 0.00 0.00 0.00 70 1015.1
20260507081548 36 264 0.0 1.7 0.00 0.00 0.00 71 1015.2
20260507080046 37 264 0.0 2.6 0.00 0.00 0.00 70 1015.2
20260507074544 37 277 0.9 1.7 0.00 0.00 0.00 71 1015.3
20260507073042 37 277 0.9 2.6 0.00 0.00 0.00 72 1015.3
20260507071540 38 281 0.0 1.7 0.00 0.00 0.00 71 1015.5
20260507070037 38 292 0.9 1.7 0.00 0.00 0.00 67 1015.6
20260507064533 39 294 0.9 1.7 0.00 0.00 0.00 65 1015.7
20260507063035 39 294 0.9 1.7 0.00 0.00 0.00 63 1015.8
20260507061529 39 294 0.0 1.7 0.00 0.00 0.00 62 1016.0
20260507060038 40 294 0.0 1.7 0.00 0.00 0.00 60 1016.0
20260507054533 40 294 0.0 1.7 0.00 0.00 0.00 61 1016.1
20260507053024 40 294 0.9 1.7 0.00 0.00 0.00 60 1016.2
20260507051521 41 295 0.9 2.6 0.00 0.00 0.00 60 1016.2
20260507050019 41 298 0.0 2.6 0.00 0.00 0.00 59 1016.2
20260507044540 41 299 0.0 1.7 0.00 0.00 0.00 58 1016.4
20260507043018 41 299 0.0 0.9 0.00 0.00 0.00 60 1016.4
20260507041517 42 299 0.0 0.9 0.00 0.00 0.00 56 1016.5
20260507040016 41 299 0.0 0.9 0.00 0.00 0.00 55 1016.6
20260507034516 42 299 0.0 0.9 0.00 0.00 0.00 54 1016.6
20260507033016 42 299 0.0 0.9 0.00 0.00 0.00 54 1016.7
20260507031516 42 299 0.0 0.9 0.00 0.00 0.00 54 1016.8
20260507030017 42 299 0.0 0.9 0.00 0.00 0.00 53 1016.8
20260507024514 42 299 0.0 0.9 0.00 0.00 0.00 53 1016.9
20260507023013 41 299 0.0 1.7 0.00 0.00 0.00 52 1016.9
20260507021519 42 299 1.7 3.5 0.00 0.00 0.00 51 1016.9
20260507020013 42 290 0.9 3.5 0.00 0.00 0.00 51 1016.9
20260507014513 43 288 1.7 4.3 0.00 0.00 0.00 50 1016.8
20260507013012 43 270 0.9 6.1 0.00 0.00 0.00 49 1016.8
20260507011511 44 288 1.7 7.0 0.00 0.00 0.00 47 1016.9
20260507010011 45 302 3.5 9.6 0.00 0.00 0.00 46 1016.9
20260507004511 45 269 3.5 10.4 0.00 0.00 0.00 45 1017.0
20260507003017 46 240 2.6 13.0 0.00 0.00 0.00 44 1016.9
20260507001520 46 279 5.2 12.2 0.00 0.00 0.00 45 1017.1
20260507000012 45 254 3.5 10.4 0.00 0.00 0.00 46 1017.1
20260506234509 45 340 5.2 12.2 0.00 0.00 0.00 45 1017.1
20260506233007 45 288 6.1 10.4 0.00 0.00 0.00 45 1017.2
20260506231512 45 298 3.5 10.4 0.00 0.00 0.00 45 1017.2
20260506230006 45 312 3.5 13.0 0.00 0.00 0.00 46 1017.2
20260506224506 45 288 6.1 14.8 0.00 0.00 0.00 45 1017.2
20260506223005 45 307 6.1 13.9 0.00 0.00 0.00 46 1017.2
20260506221604 46 309 3.5 12.2 0.00 0.00 0.00 46 1017.3
20260506220003 45 315 5.2 11.3 0.00 0.00 0.00 47 1017.3
20260506214504 45 244 3.5 12.2 0.00 0.00 0.00 47 1017.5
20260506213004 44 279 7.8 15.6 0.00 0.00 0.00 47 1017.6
20260506211500 45 277 6.1 13.0 0.00 0.00 0.00 47 1017.6
20260506204628 45 238 2.6 8.7 0.00 0.00 0.00 50 1018.0